Weather History for LBPG - March, 2019

Change the Weather History Date:

Friday, March 22, 2019

  Actual Average (WUND) Record (WUND)
Temperature  
Mean Temperature 50 °F -  
Max Temperature 62 °F - - (-1)
Min Temperature 39 °F - - (-1)
Degree Days  
Heating Degree Days 14    
Moisture  
Dew Point 37 °F    
Average Humidity 62    
Maximum Humidity 87    
Minimum Humidity 34    
Precipitation  
Precipitation 0.00 in - - ()
Sea Level Pressure  
Sea Level Pressure 30.36 in    
Wind  
Wind Speed 3 mph ()    
Max Wind Speed 9 mph    
Max Gust Speed -    
Visibility 6.1 miles    
Events      
Averages and records for this station are not official NWS values.
T = Trace of Precipitation, MM = Missing Value Source: Averaged Metar Reports

Daily Weather History Graph

Daily Weather History Graph

Search for Another Location

Airport or City:

Astronomy

Mar. 22, 2019 Rise Set
Actual Time 6:21 AM EET 6:35 PM EET
Civil Twilight 5:53 AM EET 7:03 PM EET
Nautical Twilight 5:21 AM EET 7:35 PM EET
Astronomical Twilight 4:47 AM EET 8:09 PM EET
Moon 8:22 PM EET 7:25 AM EET
Length of Visible Light 13h 09m
Length of Day
12h 13m
Full, 97% of the Moon is Illuminated
Mar 22
Full
Mar 28
Last Quarter
Apr 5
New
Apr 12
First Quarter
Apr 19
Full

Hourly Weather History & Observations

Time (EET) Temp. Windchill Dew Point Humidity Pressure Visibility Wind Dir Wind Speed Gust Speed Precip Events Conditions
12:00 AM 46.4 °F 44.3 °F 39.2 °F 76% 30.42 in 6.2 mi ENE 4.6 mph - N/A   Mostly Cloudy
1:00 AM 42.8 °F 40.1 °F 37.4 °F 81% 30.42 in 6.2 mi ENE 4.6 mph - N/A   Mostly Cloudy
2:00 AM 39.2 °F 35.9 °F 35.6 °F 87% 30.42 in 6.2 mi NNE 4.6 mph - N/A   Mostly Cloudy
3:00 AM 41.0 °F 38.0 °F 35.6 °F 81% 30.42 in 6.2 mi WNW 4.6 mph - N/A   Scattered Clouds
4:00 AM 41.0 °F 38.0 °F 35.6 °F 81% 30.42 in 6.2 mi NNE 4.6 mph - N/A   Scattered Clouds
5:00 AM 42.8 °F - 35.6 °F 76% 30.42 in 6.2 mi Calm Calm - N/A   Mostly Cloudy
6:00 AM 41.0 °F - 35.6 °F 81% 30.42 in 6.2 mi Calm Calm - N/A   Mostly Cloudy
7:00 AM 41.0 °F - 37.4 °F 87% 30.42 in 6.2 mi Calm Calm - N/A   Mostly Cloudy
8:00 AM 42.8 °F - 37.4 °F 81% 30.45 in 6.2 mi Calm Calm - N/A   Scattered Clouds
10:00 AM 51.8 °F - 37.4 °F 58% 30.42 in 5.0 mi Calm Calm - N/A   Haze
12:00 PM 59.0 °F - 35.6 °F 42% 30.39 in 6.2 mi SW 6.9 mph - N/A   Partly Cloudy
1:00 PM 60.8 °F - 39.2 °F 45% 30.36 in 6.2 mi South 6.9 mph - N/A   Partly Cloudy
2:00 PM 60.8 °F - 35.6 °F 39% 30.33 in 6.2 mi SSE 4.6 mph - N/A   Scattered Clouds
3:00 PM 62.6 °F - 33.8 °F 34% 30.30 in 6.2 mi SSW 9.2 mph - N/A   Scattered Clouds
4:00 PM 62.6 °F - 35.6 °F 37% 30.27 in 6.2 mi ESE 2.3 mph - N/A   Scattered Clouds
5:00 PM 62.6 °F - 33.8 °F 34% 30.27 in 6.2 mi SE 4.6 mph - N/A   Scattered Clouds
6:00 PM 60.8 °F - 37.4 °F 42% 30.27 in 6.2 mi SSE 4.6 mph - N/A   Scattered Clouds
7:00 PM 57.2 °F - 39.2 °F 51% 30.27 in 6.2 mi ESE 4.6 mph - N/A   Scattered Clouds
8:00 PM 53.6 °F - 39.2 °F 58% 30.27 in 6.2 mi ESE 6.9 mph - N/A   Scattered Clouds
9:00 PM 50.0 °F - 37.4 °F 62% 30.27 in 6.2 mi East 4.6 mph - N/A   Clear
10:00 PM 44.6 °F 42.2 °F 37.4 °F 76% 30.27 in 6.2 mi NNE 4.6 mph - N/A   Partly Cloudy